[keps] orb08241.2l.amsat
Ray Hoad
r.hoad at att.net
Thu Aug 28 14:16:54 PDT 2008
SB KEPS @ AMSAT $ORB08241.N
2Line Orbital Elements 08241.AMSAT
HR AMSAT ORBITAL ELEMENTS FOR AMATEUR SATELLITES IN NASA FORMAT
FROM WA5QGD FORT WORTH,TX August 28, 2008
Send Subscribe/unsubscribe to KEPS at
http://www.amsat.org/mailman/listinfo/keps
BID: ORB08241.N
DECODE 2-LINE ELSETS WITH THE FOLLOWING KEY:
1 AAAAAU 00 0 0 BBBBB.BBBBBBBB .CCCCCCCC 00000-0 00000-0 0 DDDZ
2 AAAAA EEE.EEEE FFF.FFFF GGGGGGG HHH.HHHH III.IIII JJ.JJJJJJJJKKKKKZ
KEY: A-CATALOGNUM B-EPOCHTIME C-DECAY D-ELSETNUM E-INCLINATION F-RAAN
G-ECCENTRICITY H-ARGPERIGEE I-MNANOM J-MNMOTION K-ORBITNUM Z-CHECKSUM
TO ALL RADIO AMATEURS BT
AO-07
1 07530U 74089B 08241.51847692 -.00000027 00000-0 10000-3 0 2638
2 07530 101.4624 270.5848 0012200 120.4708 239.7570 12.53574023546040
AO-10
1 14129U 83058B 08241.07191244 -.00000127 00000-0 10000-3 0 5524
2 14129 026.0248 198.4493 5968853 152.2471 259.4565 02.05868533189582
UO-11
1 14781U 84021B 08240.86731438 .00000038 00000-0 12381-4 0 07538
2 14781 098.1505 275.9542 0008647 196.8312 163.2639 14.79659898314453
RS-15
1 23439U 94085A 08240.85404734 -.00000039 00000-0 10000-3 0 01681
2 23439 064.8157 019.1546 0146866 109.1248 252.5640 11.27553005563047
FO-29
1 24278U 96046B 08240.93015461 -.00000048 00000-0 -13629-4 0 08595
2 24278 098.5812 147.8146 0351219 029.9567 332.1172 13.52939033594092
SO-33
1 25509U 98061B 08240.48585004 .00000069 00000-0 79975-8 0 2705
2 25509 031.4353 273.2104 0355243 290.5260 065.7586 14.28221588513813
AO-40
1 26609U 00072B 08238.07061245 -.00000360 00000-0 10000-3 0 1084
2 26609 007.7153 064.6904 7931208 115.6815 341.3437 01.25584265 35904
VO-52
1 28650U 05017B 08240.59464305 -.00000270 00000-0 -27539-4 0 165
2 28650 097.7831 305.2242 0025974 267.8628 091.9615 14.81491349179172
PO-63
1 29712U 07001D 08241.21687536 .00000348 00000-0 52420-4 0 7486
2 29712 097.8698 298.0334 0014820 143.6730 216.5491 14.80248824 88126
AO-16
1 20439U 90005D 08241.46915984 .00000015 00000-0 20956-4 0 4046
2 20439 098.2373 217.8615 0010570 327.1897 032.8632 14.31801366971264
LO-19
1 20442U 90005G 08240.52629685 -.00000018 00000-0 86046-5 0 3277
2 20442 098.2064 225.2837 0011426 326.8445 033.2037 14.32039017971283
AO-27
1 22825U 93061C 08241.51821973 -.00000004 00000-0 15071-4 0 511
2 22825 098.3908 198.8513 0009145 052.5009 307.6987 14.29245589778105
IO-26
1 22826U 93061D 08240.64974240 .00000001 00000-0 16643-4 0 07600
2 22826 098.3840 198.8921 0009805 049.8884 310.3152 14.29494854778079
PO-28
1 22829U 93061G 08241.51075381 .00000005 00000-0 18153-4 0 221
2 22829 098.3717 200.8120 0010239 020.5184 339.6397 14.30195605778464
GO-32
1 25397U 98043D 08240.75337106 .00000093 00000-0 59253-4 0 6825
2 25397 098.3601 272.3647 0001877 058.0514 302.0849 14.23147907526391
NO-44
1 26931U 01043C 08240.85885409 -.00000311 00000-0 -89204-4 0 09635
2 26931 067.0518 100.0216 0007240 265.8194 094.2046 14.29529697360657
SO-50
1 27607U 02058C 08240.64416830 .00000091 00000-0 35919-4 0 06856
2 27607 064.5577 196.6192 0086292 265.5694 093.5545 14.71376988305481
CO-55
1 27844U 03031E 08240.64453059 .00000006 00000-0 23066-4 0 03836
2 27844 098.7174 247.9236 0008909 272.6065 087.4091 14.20593292267584
CO-57
1 27848U 03031J 08240.58180017 -.00000016 00000-0 13113-4 0 3333
2 27848 098.7174 246.9445 0009146 277.1185 082.8946 14.20401437267549
AO-51
1 28375U 04025K 08241.49062522 -.00000005 00000-0 11560-4 0 1840
2 28375 098.0687 261.9862 0083661 294.2874 064.9594 14.40616562218811
CO-56
1 28941U 06005C 08241.43267829 .00030560 26782-5 20950-3 0 3280
2 28941 098.1119 002.2135 0156817 137.9533 223.3906 15.60126333141299
CP3
1 31128U 07012M 08240.72931325 -.00000046 00000-0 00000-0 0 04177
2 31128 098.0334 301.1241 0104167 113.5039 247.7156 14.51970944072316
CP4
1 31132U 07012Q 08240.94939387 -.00000014 00000-0 71626-5 0 03982
2 31132 098.0357 303.8375 0087374 105.6918 255.3943 14.55137804072381
CO-65
1 32785U 08021C 08241.46098518 .00000003 00000-0 73418-5 0 1423
2 32785 097.9874 301.1841 0013765 261.6652 098.3002 14.81385805 18104
NOAA-10
1 16969U 86073A 08241.49673108 .00000046 00000-0 36896-4 0 2672
2 16969 098.7218 263.3140 0012022 334.7987 025.2619 14.27366971141754
NOAA-11
1 19531U 88089A 08241.36992887 .00000255 00000-0 15487-3 0 2992
2 19531 098.7969 329.6853 0011065 219.8732 140.1658 14.14876639 28116
NOAA-12
1 21263U 91032A 08241.63647697 .00000000 00000-0 19073-4 0 8131
2 21263 098.7703 243.5915 0011479 277.3102 082.6771 14.25543733898714
MET-3/5
1 21655U 91056A 08241.51593069 .00000051 00000-0 10000-3 0 4796
2 21655 082.5525 053.2723 0012972 188.1188 171.9727 13.17016632819109
MET-2/21
1 22782U 93055A 08240.87293065 .00000034 00000-0 16998-4 0 2354
2 22782 082.5450 054.6988 0024076 089.2138 271.1782 13.83630249757047
OKEAN-4
1 23317U 94066A 08240.73079757 .00000149 00000-0 15514-4 0 6788
2 23317 082.5365 248.3070 0020395 250.1307 109.7729 14.82630771748887
NOAA-14
1 23455U 94089A 08241.52449491 .00000064 00000-0 57414-4 0 2844
2 23455 098.9417 313.7913 0008563 302.3748 057.6584 14.13747992704570
SICH-1
1 23657U 95046A 08240.73652903 .00000226 00000-0 25670-4 0 04782
2 23657 082.5279 029.2911 0022307 243.1939 116.6993 14.81599623700816
NOAA-15
1 25338U 98030A 08241.41278962 .00000103 00000-0 62484-4 0 6017
2 25338 098.5596 231.4537 0010501 185.4548 174.6519 14.24722625535081
RESURS
1 25394U 98043A 08240.98151087 -.00000004 00000-0 16397-4 0 00198
2 25394 098.3826 281.6500 0002058 018.2283 341.8968 14.24168452526663
FENGYUN1
1 25730U 99025A 08241.55488326 .00000607 00000-0 38287-3 0 5549
2 25730 098.7258 214.8987 0020826 327.2497 032.7379 14.07763124479140
OKEAN-0
1 25860U 99039A 08240.55314214 .00000014 00000-0 94542-5 0 4562
2 25860 097.7558 227.9628 0001860 061.1938 298.9457 14.73533408489905
NOAA-16
1 26536U 00055A 08241.53078603 .00000224 00000-0 14623-3 0 751
2 26536 099.1630 232.3121 0010964 027.2485 332.9273 14.12495542408989
NOAA-17
1 27453U 02032A 08241.49572491 .00000176 00000-0 95006-4 0 690
2 27453 098.5289 304.0072 0010770 255.7921 104.2078 14.23998318321091
NOAA-18
1 28654U 05018A 08241.51485015 .00000069 00000-0 62657-4 0 5578
2 28654 098.8694 181.5653 0015260 107.9444 252.3372 14.11188754168675
HUBBLE
1 20580U 90037B 08241.31659613 .00000294 00000-0 99176-5 0 2099
2 20580 028.4681 212.7682 0003749 072.8240 287.2759 15.00402555805820
PO-34
1 25520U 98064B 08240.83000108 .00000339 00000-0 69356-5 0 670
2 25520 028.4585 059.1183 0005025 345.1019 014.9428 15.17222006544052
ISS
1 25544U 98067A 08241.50381381 .00000794 00000-0 10655-4 0 1425
2 25544 051.6429 005.2860 0006422 054.0673 034.8176 15.71777722559913
CO-58
1 28895U 05043F 08241.43932393 .00000095 00000-0 29439-4 0 1060
2 28895 098.0884 133.7096 0017710 179.4957 180.6253 14.59691689151020
NCUBE2
1 28897U 05043H 08241.25828563 .00000081 00000-0 26484-4 0 6365
2 28897 098.0870 133.4569 0016820 182.3441 177.7666 14.59864485143281
FALCON
1 30776U 07006E 08240.91659032 .00000165 00000-0 15087-4 0 03963
2 30776 035.4339 078.4546 0002039 295.9691 064.0815 15.03039872080944
MAST
1 31126U 07012K 08240.63196163 -.00000052 00000-0 -12331-5 0 04070
2 31126 098.0335 302.1902 0095855 110.3704 250.7834 14.53441861072395
CAPE1
1 31130U 07012P 08241.41241998 .00000110 00000-0 36093-4 0 3903
2 31130 098.0340 301.7842 0103784 111.1775 250.0544 14.51987820 72201
COMPASS
1 32787U 08021E 08240.78099736 -.00000069 00000-0 -18704-5 0 01401
2 32787 097.9834 300.4478 0014905 265.5873 094.3637 14.81450586018003
AAUSAT2
1 32788U 08021F 08240.97468846 -.00000110 00000-0 -70637-5 0 01438
2 32788 097.9853 300.6608 0013881 265.3255 094.6369 14.81560562018030
DO-64
1 32789U 08021G 08240.91700896 -.00000049 00000-0 66880-6 0 01422
2 32789 097.9862 300.6278 0014516 263.6092 096.3466 14.81456243018026
CO-66
1 32791U 08021J 08240.72502512 -.00000092 00000-0 -48239-5 0 01403
2 32791 097.9853 300.4095 0014952 263.8232 096.1275 14.81305373017961
RS-30
1 32953U 08025A 08240.64354606 .00000010 00000-0 00000-0 0 00953
2 32953 082.4972 079.1520 0019798 097.7333 262.5993 12.42997091011929
/EX
More information about the Keps
mailing list